Lexington Weather

Lexington, Massachusetts, USA

39°F
3/30/2020 8:29am 
  • Lexington Conditions: Mist, Overcast
  • Temperature: 39.4°F / 4.1°C 
  • Dew Point: 38.7°F 
  • Relative Humidity: 97
  • Wind: Wind from NNE NNE 2 mph, 10-min avg: 2 mph, gust: 7 mph
  • Barometer: 29.96 in Steady
  • Visibility: 2 miles
  • Rain Today: 0.02 in
  •   

Regional Weather Roundup
for Boston / Norton, MA

        
000
ASUS41 KBOX 281904
RWRBOX

REGIONAL WEATHER ROUNDUP
NATIONAL WEATHER SERVICE BOSTON/NORTON MA
300 PM EDT SAT MAR 28 2020

NOTE:  "FAIR" INDICATES FEW OR NO CLOUDS BELOW 12,000 FEET WITH NO 
SIGNIFICANT WEATHER AND/OR OBSTRUCTIONS TO VISIBILITY.

MAZALL-282000-
EASTERN MASSACHUSETTS
  
CITY           SKY/WX    TMP DP  RH WIND       PRES   REMARKS
BOSTON         CLOUDY    45  35  68 E10       30.17S                  
BEVERLY        FAIR      47  30  51 SE9       30.16F                  
LAWRENCE       FAIR      54  20  26 SW8       30.16F                  
BEDFORD        FAIR      56  19  23 VRB5      30.13F                  
BLUE HILL        N/A     53  21  28 SW9       30.13F                  
NORWOOD        FAIR      58  21  24 SW6       30.15S                  
MARSHFIELD     FAIR      52  36  54 SE7       30.16S                  
PLYMOUTH       FAIR      51  30  44 S8        30.17S                  
TAUNTON        FAIR      53  20  27 SE8       30.16S                  
NEW BEDFORD    FAIR      51  27  39 S10       30.18R                  
$$

MAZALL-282000-
CAPE COD AND THE ISLANDS
  
CITY           SKY/WX    TMP DP  RH WIND       PRES   REMARKS
FALMOUTH       PTSUNNY   48  27  43 S14       30.19R                  
HYANNIS        FAIR      49  30  48 S7        30.18R                  
CHATHAM        FAIR      48  27  44 VRB6      30.21R                  
PROVINCETOWN   FAIR      49  32  52 S8        30.19R                  
NANTUCKET      PTSUNNY   46  38  73 SE9       30.20R                  
MARTHAS VNYRD  CLOUDY    48  32  53 SE8       30.19R                  
$$
 
MAZALL-282000-
CENTRAL AND WESTERN MASSACHUSETTS
  
CITY           SKY/WX    TMP DP  RH WIND       PRES   REMARKS
WORCESTER      CLOUDY    51  20  29 S7        30.13F                  
FITCHBURG      FAIR      54  18  24 SE8       30.13F                  
ORANGE         PTSUNNY   53  19  26 S6        30.12F                  
SPRINGFIELD    CLOUDY    50  20  30 SW5       30.12F                  
WESTFIELD      CLOUDY    49  20  31 CALM      30.12F                  
NORTH ADAMS    CLOUDY    51  20  29 SE8       30.08F                  
PITTSFIELD     CLOUDY    48  20  32 SE8       30.06F                  
$$
 
RIZALL-282000-
RHODE ISLAND
  
CITY           SKY/WX    TMP DP  RH WIND       PRES   REMARKS
PROVIDENCE     CLOUDY    51  30  44 S14       30.18R                  
NEWPORT        PTSUNNY   49  31  49 SE10      30.18R                  
BLOCK ISLAND   PTSUNNY   47  36  65 SE12      30.16S                  
SMITHFIELD     FAIR      53  18  25 S8        30.16R                  
WESTERLY       CLOUDY    52  32  46 E9        30.17R                  
$$
 
CTZALL-282000-
CONNECTICUT
  
CITY           SKY/WX    TMP DP  RH WIND       PRES   REMARKS
BRADLEY INTL   CLOUDY    50  20  30 VRB3      30.14F                  
HARTFORD       CLOUDY    52  24  33 CALM      30.14F                  
BRIDGEPORT     LGT RAIN  47  35  63 E12       30.15F                  
DANBURY        LGT RAIN  45  34  65 E6        30.14S                  
GROTON         CLOUDY    48  34  58 E12       30.14F                  
NEW HAVEN      CLOUDY    49  31  49 E7        30.14F                  
CHESTER        FAIR      48  28  46 E5        30.13F                  
MERIDEN        CLOUDY    50  29  44 S5        30.14F                  
WILLIMANTIC    CLOUDY    52  23  32 SE5       30.15F                  
OXFORD         CLOUDY    46  31  55 SE3       30.13F                  
$$

MEZ002-015-021-024-NHZ003-005-008-011-012-014-VTZ005-008-282000-
NORTHERN NEW ENGLAND
  
CITY           SKY/WX    TMP DP  RH WIND       PRES   REMARKS
PORTLAND ME    CLOUDY    48  21  34 S9        30.16F                  
BANGOR ME      PTSUNNY   53  10  18 NW8       30.12F                  
CONCORD NH     FAIR      53  16  23 VRB6      30.12F                  
MANCHESTER NH  CLOUDY    54  15  21 S8        30.12F                  
NASHUA NH      PTSUNNY   53  19  26 VRB3      30.13F                  
PORTSMOUTH NH  CLOUDY    48  26  41 SE9       30.15                   
JAFFREY NH     PTSUNNY   52  21  29 S5        30.10F                  
KEENE NH       PTSUNNY   51  21  30 VRB3      30.11F                  
BURLINGTON VT  CLOUDY    53  15  22 S9        30.11R                  
MT. WASHINGTON CLOUDY    27  19  74 W18         N/A  WCI  13          
$$

NYZ052-076-282000-
EASTERN NEW YORK
  
CITY           SKY/WX    TMP DP  RH WIND       PRES   REMARKS
ALBANY         LGT RAIN  50  26  39 S10       30.10F                  
NEW YORK CITY  HVY RAIN  45  40  82 NE9       30.12F                  
$$
 
ANZALL-282000-
MARINE OBSERVATIONS
  
STATION/POSITION TIME  TEMP    WIND        PRES    VSBY  WAVE
                       AIR SEA DIR/SP/G                  HT/PER
                 (UTC) (F)     (DEG/KT/KT) (MB)    (MI)  (FT/S)
BOSTON BUOY      1850   44 44  100/  6/  8 1021.0S         2/11
BUZZARDS BAY     1800          130/ 11/ 13 1022.4F
NANTUCKET SOUND  1840                        N/A           1/ 7
MASS BAY-STELLWA 1804   44 41  140/  6/  8 1019.7F  1 7/8  2/11
ISLE OF SHOALS   1800   42     130/ 10/ 11 1021.2F
S OF BLOCK IS    1830      44                N/A           3/ 8
$$

......................KEY.........................
  SKY/WX - SKY CONDITION/PRESENT WEATHER
  TMP    - TEMPERATURE IN FAHRENHEIT
  DWPT   - DEWPOINT IN FAHRENHEIT
  RH     - RELATIVE HUMIDITY IN PERCENT
  WIND   - DIRECTION AND SPEED IN MPH
  PRES   - MEAN SEA LEVEL PRESSURE IN INCHES OF HG
  WCI    - WIND CHILL INDEX
  VSB    - VISIBILITY IN MILES
  HX     - HEAT INDEX
  TC     - TEMPERATURE IN CELSIUS
  VRB    - VARIABLE WIND DIRECTION
  N/A    - NOT AVAILABLE
  
      

Other recent Regional Weather Roundups

Mon Mar 30, 8:04am

Mon Mar 30, 7:04am

Mon Mar 30, 6:04am

Mon Mar 30, 5:04am

Mon Mar 30, 4:04am

Mon Mar 30, 3:05am

Mon Mar 30, 2:04am

Mon Mar 30, 1:04am

Mon Mar 30, 12:04am

Sun Mar 29, 11:04pm

Sun Mar 29, 10:05pm

Sun Mar 29, 9:04pm

Sun Mar 29, 8:04pm

Sun Mar 29, 7:04pm

Sun Mar 29, 6:04pm

Sun Mar 29, 5:05pm

Sun Mar 29, 4:04pm

Sun Mar 29, 3:04pm

Sun Mar 29, 2:04pm

Sun Mar 29, 1:05pm

Sun Mar 29, 12:04pm

Sun Mar 29, 11:04am

Sun Mar 29, 10:04am

Sun Mar 29, 9:04am

Sun Mar 29, 8:04am

Sun Mar 29, 7:04am

Sun Mar 29, 6:04am

Sun Mar 29, 5:04am

Sun Mar 29, 4:04am

Sun Mar 29, 3:04am

Sun Mar 29, 2:04am

Sun Mar 29, 1:04am

Sun Mar 29, 12:04am

Sat Mar 28, 11:05pm

Sat Mar 28, 10:04pm

Sat Mar 28, 9:04pm

Sat Mar 28, 8:04pm

Sat Mar 28, 7:04pm

Sat Mar 28, 6:04pm

Sat Mar 28, 5:05pm

Sat Mar 28, 4:04pm

Sat Mar 28, 2:04pm

Sat Mar 28, 1:05pm

Sat Mar 28, 12:04pm

Sat Mar 28, 11:04am

Sat Mar 28, 10:04am

Sat Mar 28, 9:04am

Sat Mar 28, 8:04am

Sat Mar 28, 7:04am

Sat Mar 28, 6:04am

Sat Mar 28, 5:04am

Sat Mar 28, 4:04am

Sat Mar 28, 3:04am

Sat Mar 28, 2:04am

Sat Mar 28, 1:04am

Sat Mar 28, 12:04am

Fri Mar 27, 11:04pm

Fri Mar 27, 10:04pm

Fri Mar 27, 9:04pm

Fri Mar 27, 8:04pm

Fri Mar 27, 7:05pm

Fri Mar 27, 6:04pm

Fri Mar 27, 5:05pm

Fri Mar 27, 4:05pm

Fri Mar 27, 3:04pm

Fri Mar 27, 2:05pm

Fri Mar 27, 1:04pm

Fri Mar 27, 12:04pm

Fri Mar 27, 11:04am

Fri Mar 27, 10:04am

Fri Mar 27, 9:04am

Meta data:

ID: 88de45c7-e983-4571-bbc9-e360e521cf4c
Link: https://api.weather.gov/products/88de45c7-e983-4571-bbc9-e360e521cf4c